Weather History for KWWR - December, 2012

Change the Weather History Date:

Tuesday, December 4, 2012

  Actual Average (KGAG) Record (KGAG)
Temperature  
Mean Temperature 46 °F -  
Max Temperature 60 °F 54 °F 85 °F (1954)
Min Temperature 33 °F 26 °F 11 °F (1978)
Degree Days  
Heating Degree Days 18    
Moisture  
Dew Point 22 °F    
Average Humidity 45    
Maximum Humidity 81    
Minimum Humidity 15    
Precipitation  
Precipitation 0.00 in - - ()
Sea Level Pressure  
Sea Level Pressure 30.31 in    
Wind  
Wind Speed 6 mph (North)    
Max Wind Speed 10 mph    
Max Gust Speed -    
Visibility 10 miles    
Events      
Averages and records for this station are not official NWS values.
T = Trace of Precipitation, MM = Missing Value Source: NWS Daily Summary

Daily Weather History Graph

Daily Weather History Graph

Search for Another Location

Airport or City:

Trip Planner

Search our weather history database for the weather conditions in past years. The results will help you decide how hot, cold, wet, or windy it might be!

Date:

Astronomy

Dec. 04, 2012 Rise Set
Actual Time 7:34 AM CST 5:22 PM CST
Civil Twilight 7:05 AM CST 5:51 PM CST
Nautical Twilight 6:33 AM CST 6:23 PM CST
Astronomical Twilight 6:02 AM CST 6:54 PM CST
Moon 11:05 PM CST (12/4) 11:35 AM CST (12/4)
Length of Visible Light 10h 45m
Length of Day
9h 48m
Waning Gibbous, 69% of the Moon is Illuminated
Dec 4
Waning Gibbous
Dec 6
Last Quarter
Dec 13
New
Dec 19
First Quarter
Dec 28
Full

Hourly Weather History & Observations

Time (CST) Temp. Windchill Dew Point Humidity Pressure Visibility Wind Dir Wind Speed Gust Speed Precip Events Conditions
12:15 AM 46.4 °F 41.9 °F 33.8 °F 62% 30.17 in 10.0 mi NNW 9.2 mph - N/A   Clear
12:35 AM 46.4 °F 42.4 °F 32.0 °F 57% 30.17 in 10.0 mi North 8.1 mph - N/A   Clear
12:55 AM 44.6 °F 40.2 °F 32.0 °F 61% 30.17 in 10.0 mi NNW 8.1 mph - N/A   Clear
1:15 AM 42.8 °F 38.6 °F 32.0 °F 66% 30.18 in 10.0 mi North 6.9 mph - N/A   Clear
1:35 AM 42.8 °F 38.6 °F 32.0 °F 66% 30.17 in 10.0 mi North 6.9 mph - N/A   Clear
1:55 AM 42.8 °F 38.0 °F 32.0 °F 66% 30.18 in 10.0 mi NNW 8.1 mph - N/A   Clear
2:15 AM 42.8 °F 38.0 °F 32.0 °F 66% 30.19 in 10.0 mi North 8.1 mph - N/A   Clear
2:35 AM 41.0 °F 36.4 °F 32.0 °F 70% 30.19 in 10.0 mi North 6.9 mph - N/A   Clear
2:55 AM 41.0 °F 37.1 °F 32.0 °F 70% 30.19 in 10.0 mi North 5.8 mph - N/A   Clear
3:15 AM 37.4 °F 32.8 °F 32.0 °F 81% 30.21 in 10.0 mi NW 5.8 mph - N/A   Clear
3:35 AM 37.4 °F 32.1 °F 32.0 °F 81% 30.22 in 10.0 mi North 6.9 mph - N/A   Scattered Clouds
3:55 AM 39.2 °F 34.2 °F 32.0 °F 75% 30.23 in 10.0 mi North 6.9 mph - N/A   Clear
4:15 AM 41.0 °F 35.8 °F 32.0 °F 70% 30.23 in 10.0 mi North 8.1 mph - N/A   Clear
4:35 AM 41.0 °F 36.4 °F 32.0 °F 70% 30.24 in 10.0 mi North 6.9 mph - N/A   Clear
4:55 AM 37.4 °F 32.1 °F 30.2 °F 75% 30.26 in 10.0 mi NNW 6.9 mph - N/A   Clear
5:15 AM 37.4 °F 32.8 °F 30.2 °F 75% 30.26 in 10.0 mi NNW 5.8 mph - N/A   Clear
5:35 AM 37.4 °F 32.8 °F 30.2 °F 75% 30.26 in 10.0 mi North 5.8 mph - N/A   Clear
5:55 AM 35.6 °F 29.2 °F 30.2 °F 81% 30.26 in 10.0 mi North 8.1 mph - N/A   Clear
6:15 AM 35.6 °F 29.9 °F 30.2 °F 81% 30.27 in 10.0 mi North 6.9 mph - N/A   Clear
6:35 AM 37.4 °F 31.4 °F 30.2 °F 75% 30.28 in 10.0 mi North 8.1 mph - N/A   Clear
6:55 AM 33.8 °F 30.8 °F 28.4 °F 81% 30.31 in 10.0 mi North 3.5 mph - N/A   Clear
7:15 AM 33.8 °F 27.7 °F 28.4 °F 81% 30.32 in 10.0 mi NNW 6.9 mph - N/A   Clear
7:35 AM 33.8 °F 28.6 °F 28.4 °F 81% 30.34 in 10.0 mi NW 5.8 mph - N/A   Clear
7:55 AM 33.8 °F 29.6 °F 28.4 °F 81% 30.34 in 10.0 mi NNW 4.6 mph - N/A   Clear
8:15 AM 37.4 °F 33.8 °F 28.4 °F 70% 30.34 in 10.0 mi NNW 4.6 mph - N/A   Clear
8:35 AM 39.2 °F - 28.4 °F 65% 30.33 in 10.0 mi Calm Calm - N/A   Clear
8:55 AM 42.8 °F 41.1 °F 28.4 °F 57% 30.34 in 10.0 mi NNW 3.5 mph - N/A   Clear
9:15 AM 44.6 °F 42.2 °F 28.4 °F 53% 30.35 in 10.0 mi NNW 4.6 mph - N/A   Clear
9:35 AM 48.2 °F - 26.6 °F 43% 30.36 in 10.0 mi NNW 3.5 mph - N/A   Clear
9:55 AM 50.0 °F - 23.0 °F 35% 30.37 in 10.0 mi NNW 3.5 mph - N/A   Clear
10:15 AM 51.8 °F - 23.0 °F 33% 30.37 in 10.0 mi NNE 4.6 mph - N/A   Clear
10:35 AM 51.8 °F - 21.2 °F 30% 30.39 in 10.0 mi North 3.5 mph - N/A   Clear
10:55 AM 55.4 °F - 19.4 °F 25% 30.38 in 10.0 mi ENE 3.5 mph - N/A   Clear
11:15 AM 55.4 °F - 19.4 °F 25% 30.38 in 10.0 mi NNE 3.5 mph - N/A   Clear
11:35 AM 55.4 °F - 19.4 °F 25% 30.38 in 10.0 mi East 3.5 mph - N/A   Clear
11:55 AM 55.4 °F - 19.4 °F 25% 30.38 in 10.0 mi North 5.8 mph - N/A   Clear
12:15 PM 59.0 °F - 19.4 °F 22% 30.37 in 10.0 mi Calm Calm - N/A   Clear
12:35 PM 59.0 °F - 19.4 °F 22% 30.36 in 10.0 mi South 3.5 mph - N/A   Clear
12:55 PM 59.0 °F - 17.6 °F 20% 30.36 in 10.0 mi Calm Calm - N/A   Clear
1:15 PM 59.0 °F - 14.0 °F 17% 30.35 in 10.0 mi Calm Calm - N/A   Clear
1:35 PM 60.8 °F - 12.2 °F 15% 30.35 in 10.0 mi North 5.8 mph - N/A   Clear
1:55 PM 60.8 °F - 12.2 °F 15% 30.34 in 10.0 mi NNW 4.6 mph - N/A   Clear
2:15 PM 60.8 °F - 12.2 °F 15% 30.33 in 10.0 mi NNE 4.6 mph - N/A   Clear
2:35 PM 60.8 °F - 12.2 °F 15% 30.33 in 10.0 mi North 3.5 mph - N/A   Clear
2:55 PM 60.8 °F - 12.2 °F 15% 30.33 in 10.0 mi Calm Calm - N/A   Clear
3:15 PM 60.8 °F - 12.2 °F 15% 30.34 in 10.0 mi Calm Calm - N/A   Clear
3:35 PM 60.8 °F - 12.2 °F 15% 30.33 in 10.0 mi Calm Calm - N/A   Clear
3:55 PM 60.8 °F - 12.2 °F 15% 30.34 in 10.0 mi Calm Calm - N/A   Clear
4:15 PM 59.0 °F - 14.0 °F 17% 30.34 in 10.0 mi Calm Calm - N/A   Clear
4:35 PM 59.0 °F - 15.8 °F 19% 30.34 in 10.0 mi Calm Calm - N/A   Clear
4:55 PM 57.2 °F - 14.0 °F 18% 30.33 in 10.0 mi Calm Calm - N/A   Clear
5:15 PM 55.4 °F - 17.6 °F 23% 30.33 in 10.0 mi Calm Calm - N/A   Clear
5:35 PM 53.6 °F - 15.8 °F 22% 30.33 in 10.0 mi Calm Calm - N/A   Clear
5:55 PM 53.6 °F - 15.8 °F 22% 30.33 in 10.0 mi Calm Calm - N/A   Clear
6:15 PM 51.8 °F - 15.8 °F 24% 30.33 in 10.0 mi Calm Calm - N/A   Clear
6:35 PM 46.4 °F - 17.6 °F 32% 30.33 in 10.0 mi Calm Calm - N/A   Clear
6:55 PM 46.4 °F 45.2 °F 17.6 °F 32% 30.33 in 10.0 mi SE 3.5 mph - N/A   Clear
7:15 PM 44.6 °F 43.1 °F 17.6 °F 34% 30.33 in 10.0 mi ESE 3.5 mph - N/A   Clear
7:35 PM 44.6 °F 41.4 °F 17.6 °F 34% 30.33 in 10.0 mi SE 5.8 mph - N/A   Clear
7:55 PM 42.8 °F 38.6 °F 17.6 °F 36% 30.34 in 10.0 mi SE 6.9 mph - N/A   Clear
8:15 PM 42.8 °F 39.3 °F 17.6 °F 36% 30.34 in 10.0 mi SE 5.8 mph - N/A   Clear
8:35 PM 44.6 °F 40.2 °F 15.8 °F 31% 30.34 in 10.0 mi SSE 8.1 mph - N/A   Clear
8:55 PM 42.8 °F 38.0 °F 15.8 °F 34% 30.33 in 10.0 mi SSE 8.1 mph - N/A   Clear
9:15 PM 41.0 °F 35.2 °F 17.6 °F 39% 30.32 in 10.0 mi SSE 9.2 mph - N/A   Clear
9:35 PM 42.8 °F 37.5 °F 17.6 °F 36% 30.32 in 10.0 mi SSE 9.2 mph - N/A   Clear
9:55 PM 44.6 °F 39.7 °F 17.6 °F 34% 30.32 in 10.0 mi SSE 9.2 mph - N/A   Clear
10:15 PM 42.8 °F 37.5 °F 17.6 °F 36% 30.33 in 10.0 mi SSE 9.2 mph - N/A   Clear
10:35 PM 42.8 °F 38.6 °F 17.6 °F 36% 30.33 in 10.0 mi South 6.9 mph - N/A   Clear
10:55 PM 35.6 °F 31.7 °F 19.4 °F 52% 30.34 in 10.0 mi WSW 4.6 mph - N/A   Clear
11:15 PM 33.8 °F 28.6 °F 19.4 °F 56% 30.34 in 10.0 mi SSW 5.8 mph - N/A   Clear
11:35 PM 35.6 °F 29.2 °F 19.4 °F 52% 30.33 in 10.0 mi South 8.1 mph - N/A   Clear
11:55 PM 42.8 °F 37.0 °F 17.6 °F 36% 30.33 in 10.0 mi South 10.4 mph - N/A   Clear